Regional Weather Roundup
Issued by NWS

Home | Current Version | Previous Version | Text Only | Print | Product List | Glossary On
Versions: 1 2 3 4 5 6 7 8 9 10 11 12 13 14 15 16 17 18 19 20 21 22 23 24 25 26 27 28 29 30 31 32 33 34 35 36 37 38 39 40 41 42 43 44 45 46 47 48 49 50
945
ASUS45 KBOU 220507
RWRCO

WEATHER ROUNDUP FOR COLORADO
NATIONAL WEATHER SERVICE DENVER/BOULDER CO
1100 PM MDT THU SEP 21 2017

NOTE: "FAIR" INDICATES FEW OR NO CLOUDS BELOW 12000 FEET WITH NO
SIGNIFICANT WEATHER AND/OR OBSTRUCTIONS TO VISIBILITY.

COZ001>005-013-030-031-220600-
...NORTHWEST COLORADO...

CITY           SKY/WX    TMP DP  RH WIND       PRES   REMARKS
CRAIG          FAIR      48  32  53 CALM      29.76R
HAYDEN         FAIR      57  23  26 S6        29.80S
MEEKER         FAIR      61  21  21 VRB3      29.77S
RABBIT EARS PA FAIR      50  19  29 S10G28    30.07F
STEAMBOAT SPGS FAIR      55  27  34 CALM      29.82S
WALDEN         FAIR      41  23  48 SE7       29.92S
$$

COZ006>008-011-220600-
...WEST CENTRAL VALLEYS...

CITY           SKY/WX    TMP DP  RH WIND       PRES   REMARKS
GRAND JUNCTION FAIR      75  21  13 SE18      29.71R
MONTROSE       FAIR      67  20  16 SE7       29.84R
EAGLE          FAIR      55  24  30 SE7       29.85R
RIFLE          FAIR      74  17  11 S23G30    29.74R
DELTA          FAIR      72  19  13 SE8       29.78R
NUCLA          FAIR      68  16  13 S17G24    29.86R
$$

COZ017>023-064>068-220600-
...SOUTHWEST COLORADO...

CITY           SKY/WX    TMP DP  RH WIND       PRES   REMARKS
DURANGO        FAIR      62  28  27 CALM      29.96R
CORTEZ         FAIR      63  26  24 S5        29.89R
PAGOSA SPRINGS FAIR      51  24  34 CALM      30.05R
TELLURIDE      FAIR      58  19  21 SE13G18   30.07F
WOLF CREEK PAS CLOUDY    41  21  45 S15G30    30.32S
$$

COZ009-010-012-014-032>034-037-058>063-220600-
...CENTRAL COLORADO...

CITY           SKY/WX    TMP DP  RH WIND       PRES   REMARKS
ASPEN          FAIR      60  20  21 SE6       29.90S
BUENA VISTA    FAIR      62  16  16 S13G18    29.95S
COPPER MTN     FAIR      48  10  21 S25G36    30.18F
BERTHOUD PASS  FAIR      41  32  70 W8        30.22S
COTTONWOOD PAS FAIR      63  14  15 SW14G28   30.08R
GUNNISON       FAIR      54  21  27 S6        29.98R
KREMMLING      FAIR      52  25  35 E5        29.89R
LEADVILLE      FAIR      52  12  20 S12       30.06S
MONARCH PASS   FAIR      43  18  36 SW37      30.33S
SALIDA         FAIR      66  17  15 S8G17     30.02S
SUNLIGHT       FAIR      45  18  33 S10G29    30.11F
WILKERSON PASS FAIR      46  14  27 S8G26     30.19R
$$

COZ069>075-220600-
...SAN LUIS VALLEY/SANGRE DE CRISTO MOUNTAINS...

CITY           SKY/WX    TMP DP  RH WIND       PRES   REMARKS
ALAMOSA        FAIR      55  27  34 SW16      29.99S
DEL NORTE      FAIR      53  24  32 SW6       30.03R
LA VETA PASS   FAIR      54  28  37 S23G38    30.23F
SAGUACHE       FAIR      46  27  46 CALM      30.02S
$$

COZ035-036-038>040-220600-
...NORTHERN COLORADO FRONT RANGE...

CITY           SKY/WX    TMP DP  RH WIND       PRES   REMARKS
DENVER INTL AP FAIR      73  21  14 S18       29.70R
DMNS CITY PARK   N/A     74  22  14 SW17      29.70S
AURORA         CLEAR     74  22  14 S28G33    29.72F
FRONT RANGE AP FAIR      73  23  15 S17G25    29.72F
ERIE MUNI ARPT FAIR      73  20  13 S10       29.72R
BOULDER MUN AP FAIR      68  32  26 W5        29.67S
CENTENNIAL     FAIR      70  21  15 S12       29.76R
BROOMFIELD     FAIR      72  27  18 S15       29.72S
FORT COLLINS   FAIR      65  31  28 SW6       29.65R
LONGMONT       FAIR      60  32  34 E3        29.68R
$$

COZ041-046-047-076>085-087-088-220600-
...PIKES PEAK/PALMER DIVIDE AND SOUTHERN FOOTHILLS...

CITY           SKY/WX    TMP DP  RH WIND       PRES   REMARKS
COLO. SPRINGS  FAIR      65  24  21 SE8       29.84S
A. F. ACADEMY  FAIR      64  22  20 CALM      29.84F
SCHRIEVER AFB  FAIR      59  21  23 SW5       29.85S
CHEYENNE MTN   FAIR      68  18  14 S9        29.82F
ELLICOTT         N/A    N/A N/A N/A SW16G23   29.83S
FALCON         FAIR      56  22  26 S8        29.90R
FORT CARSON    FAIR      62  24  23 E8        29.80F
LIMON          FAIR      63  23  21 SW12      29.78R
MONUMENT HILL  FAIR      57  23  26 S12       29.89S
CANON CITY     CLEAR     66  27  22 CALM      29.79R
WALSENBURG     FAIR      59  25  27 SW12      29.87S
TRINIDAD       FAIR      71  30  21 S14       29.87S
$$

COZ042>045-048>051-090-091-220600-
...NORTHEAST COLORADO...

CITY           SKY/WX    TMP DP  RH WIND       PRES   REMARKS
GREELEY ARPT   FAIR      66  32  28 VRB5      29.64R
AKRON          FAIR      68  25  19 S10       29.68S
BURLINGTON     FAIR      67  36  31 S15       29.73R
WRAY           FAIR      70  34  26 S15G23    29.65S
YUMA           FAIR      59  34  38 S8        29.67S
STERLING       FAIR      61  32  33 S3        29.62R
HOLYOKE        FAIR      63  36  36 S13       29.65S
FORT MORGAN    FAIR      60  26  27 S5        29.66R
$$

COZ086-089-092>099-220600-
...SOUTHEAST COLORADO...

CITY           SKY/WX    TMP DP  RH WIND       PRES   REMARKS
PUEBLO         FAIR      68  23  18 NE3       29.75R
LA JUNTA       FAIR      79  28  15 S13       29.74R
LAMAR          FAIR      76  35  22 S17G25    29.72R
SPRINGFIELD      N/A     68  47  46 S15       29.82S
$$




USA.gov is the U.S. government's official web portal to all federal, state and local government web resources and services.